This demonstration page uses our WeatherBlox Daily Observations layout. Learn more.

Left ArrowRight Arrow

Hourly Observations for May 24, 2020

Temp ( °F °C ) Dew Point ( °F °C ) Humidity (%) Winds ( mph kmh ) Pressure ( in mb ) Visibility ( mi km ) Precip ( " mm )
12:54 am 00:54 Cloudy 73 22.8 63 17.2 71 71 SE 14 22 29.74 1007 10 16.0934 0 0
1:54 am 01:54 Cloudy 73 22.8 64 17.8 74 74 SE 13 20 29.7 1006 10 16.0934 0 0
2:54 am 02:54 Partly Cloudy 72 22.2 64 17.8 76 76 SSE 15 24 29.69 1005 10 16.0934 0 0
3:54 am 03:54 Mostly Clear 71 21.7 64 17.8 79 79 S 16 26 29.67 1005 10 16.0934 0 0
4:45 am 04:45 Cloudy with Nearby Thunderstorms 69 20.6 60 15.6 73 73 NNW 28 44 29.69 1006 10 16.0934 0 0
4:49 am 04:49 Windy with Storms Likely 66 19 57 14 73 73 N 33 54 29.74 1007 10 16.0934 0.001 0.001
4:54 am 04:54 Windy with Storms Likely 63 17.2 57 13.9 81 81 NNW 35 56 29.75 1008 5 8.0467 0.001 0.001
4:57 am 04:57 Cloudy with Heavy Thunderstorms 62 16.7 57 13.9 84 84 N 33 54 29.76 1008 2.5 4.02335 0.001 0.001
5:04 am 05:04 Cloudy with Thunderstorms 61 16.1 58 14.4 90 90 NNW 20 31 29.79 1009 1.75 2.816345 0.06 1.524
5:12 am 05:12 Cloudy with Heavy Thunderstorms 60 15.6 58 14.4 93 93 N 28 44 29.77 1008 0.75 1.207005 0.21 5.334
5:16 am 05:16 Cloudy with Heavy Thunderstorms 60 15.6 58 14.4 93 93 N 25 41 29.77 1008 0.75 1.207005 0.46 11.684
5:19 am 05:19 Cloudy with Heavy Thunderstorms 60 15.6 58 14.4 93 93 N 25 41 29.77 1008 1 1.60934 0.53 13.462
5:26 am 05:26 Cloudy with Thunderstorms 60 15.6 58 14.4 93 93 N 23 37 29.78 1008 3 4.82802 0.61 15.494
5:54 am 05:54 Cloudy with Thunderstorms 61 16.1 58 14.4 90 90 NNE 17 28 29.77 1008 10 16.0934 0.64 16.256
6:06 am 06:06 Mostly Cloudy with Light Rain 61 16.1 58 14.4 90 90 NE 12 19 29.77 1008 10 16.0934 0.001 0.001
6:29 am 06:29 Partly Cloudy with Light Rain 61 16.1 58 14.4 90 90 NE 3 6 29.78 1009 10 16.0934 0.001 0.001
6:54 am 06:54 Mostly Sunny 61 16.1 58 14.4 90 90 E 5 7 29.79 1009 10 16.0934 0.001 0.001
7:54 am 07:54 Mostly Cloudy with Light Rain 63 17.2 60 15.6 90 90 Calm 29.78 1009 10 16.0934 0.001 0.001
8:44 am 08:44 Mostly Cloudy with Light Rain 63 17.2 60 15.6 90 90 VRB 3 6 29.82 1010 10 16.0934 0.001 0.001
8:54 am 08:54 Mostly Cloudy with Light Rain 64 17.8 61 16.1 90 90 ESE 5 7 29.82 1010 7 11.26538 0.02 0.508
9:54 am 09:54 Mostly Cloudy 68 20 64 17.8 87 87 ESE 10 17 29.8 1009 10 16.0934 0.01 0.254
10:14 am 10:14 Partly Cloudy 69 20.6 64 17.8 84 84 SE 12 19 29.79 1009 10 16.0934 0 0
10:54 am 10:54 Sunny 69 20.6 64 17.8 84 84 S 10 17 29.8 1009 10 16.0934 0 0
11:54 am 11:54 Mostly Sunny 73 22.8 66 18.9 79 79 S 7 11 29.8 1009 10 16.0934 0.001 0.001
12:54 pm 12:54 Sunny 77 25 66 18.9 69 69 WSW 6 9 29.78 1008 10 16.0934 0 0
1:54 pm 13:54 Sunny 75 23.9 67 19.4 76 76 N 10 17 29.78 1008 10 16.0934 0 0
2:54 pm 14:54 Sunny 77 25 67 19.4 71 71 N 5 7 29.75 1008 10 16.0934 0 0
3:54 pm 15:54 Sunny 75 23.9 66 18.9 74 74 Calm 29.77 1008 10 16.0934 0 0
4:54 pm 16:54 Mostly Cloudy with Light Rain 73 22.8 67 19.4 81 81 ENE 7 11 29.79 1009 10 16.0934 0.001 0.001
5:54 pm 17:54 Cloudy 69 20.6 63 17.2 81 81 SSE 12 19 29.81 1009 10 16.0934 0.001 0.001
6:27 pm 18:27 Sunny with Nearby Thunderstorms 69 20.6 63 17.2 81 81 E 6 9 29.79 1009 10 16.0934 0 0
6:42 pm 18:42 Mostly Sunny 69 20.6 62 16.7 78 78 ENE 7 11 29.79 1009 10 16.0934 0 0
6:54 pm 18:54 Partly Cloudy 69 20.6 62 16.7 78 78 E 6 9 29.81 1009 10 16.0934 0 0
7:54 pm 19:54 Partly Cloudy 67 19.4 61 16.1 81 81 E 8 13 29.81 1010 10 16.0934 0 0
8:54 pm 20:54 Clear 66 18.9 60 15.6 81 81 Calm 29.83 1010 10 16.0934 0 0
9:54 pm 21:54 Clear 61 16.1 58 14.4 90 90 N 5 7 29.82 1010 10 16.0934 0 0
10:54 pm 22:54 Clear 62 16.7 59 15 90 90 NNE 3 6 29.81 1009 10 16.0934 0 0
11:54 pm 23:54 Clear 63 17.2 60 15.6 90 90 Calm 29.8 1009 10 16.0934 0 0

Powered by AerisWeather